STARLINK-2686 (48464 NORAD) Tracking and Keplerian Element Data

This shows tracking and keplerian element data for the satellite.

Feedback or suggestion? Click here.




ElementValue
Catalog48464
NameSTARLINK-2686
Epoch Orbit1404
Epoch Day211.25001157
Epoch Year2021
RAAN188.8615
Inclination53.0541
Eccentricity0.0002071
Argument of Perigee71.0015
Mean Anonmoly112.3598
Mean Motion15.06393671
Decay Rate-3.284E-05
L11 48464U 21040AN 21211.25001157 -.00003284 00000-0 -20171-3 0 9994
L22 48464 53.0541 188.8615 0002071 71.0015 112.3598 15.06393671 14046

Live tracking and technical data element details for STARLINK-2686 (NORAD 48464). STARLINK-2686 can be tracked NOW for your location showing map with azimuth and elevation plus other details from your city location.

Track the satellite on the map from your city or location and see movement details for azimuth, elevation, latitude, longitude, range, height, and movement on the map or in text.







IsCatalogInMostPopularTable: catalog: 48464, numindb: 30
Update: records affected: 1



GetName: 48464 STARLINK-2686

Hit Count: updated at: Sat, 31 Jul 2021 16:03:38 GMT